CYGFM01

Last updated on Wed Sep 23 2026 00:03:10 GMT+0000 (Coordinated Universal Time)

1 41887U 16078D 26265.46839522 .00021331 00000+0 23816-3 0 9992 2 41887 34.9399 334.5579 0004457 353.6065 6.4603 15.61770550543908
UTC large
Height (km)
Speed (km/s)
/
Latitude / Longitude
Inclination (degrees)
Orbital Period (minutes)
Azimuth
Elevation
Range (km)
Doppler Factor

Next 0 passes for location: London (51.5072 / 0.1276)

No passes found over London.
CYGFM01